Regional Weather Roundup
Issued by NWS Little Rock, AR

Home | Current Version | Previous Version | Text Only | Print | Product List | Glossary Off
Versions: 1 2 3 4 5 6 7 8 9 10 11 12 13 14 15 16 17 18 19 20 21 22 23 24 25 26 27 28 29 30 31 32 33 34 35 36 37 38 39 40 41 42 43 44 45 46 47 48 49 50

000
ASUS44 KLZK 250705
RWRLZK

WEATHER ROUNDUP FOR ARKANSAS
NATIONAL WEATHER SERVICE LITTLE ROCK AR
200 AM CDT MON MAY 25 2015

NOTE: "FAIR" INDICATES FEW OR NO CLOUDS BELOW 12,000 FEET WITH NO
SIGNIFICANT WEATHER AND/OR OBSTRUCTIONS TO VISIBILITY.

ARZ001-003-010-029-250800-
NORTHWEST ARKANSAS

CITY           SKY/WX    TMP DP  RH WIND       PRES   REMARKS
FAYETTEVILLE   MOCLDY    61  60  97 SW6       29.93F
FORT SMITH     CLOUDY    64  62  93 NE5       29.93S FOG
HARRISON       MOCLDY    65  61  87 S7        29.94S
BENTONVILLE    CLOUDY   N/A N/A N/A S3        29.93S
ROGERS         CLOUDY    61  60  97 S5        29.94S
SILOAM SPGS    CLOUDY    61  54  77 CALM      29.94S
HIGHFILL       CLOUDY    61  60  97 S6        29.93S
$$

ARZ004-005-016-250800-
NORTH CENTRAL ARKANSAS

CITY           SKY/WX    TMP DP  RH WIND       PRES   REMARKS
BATESVILLE     CLOUDY    70  64  83 SW5       29.95F
FLIPPIN        MOCLDY    66  63  88 CALM      29.91S
MTN HOME       MOCLDY    66  65  96 S3        29.92F
$$

ARZ040-041-250800-
WEST CENTRAL ARKANSAS

CITY           SKY/WX    TMP DP  RH WIND       PRES   REMARKS
MENA           CLOUDY    72  70  94 S5        29.95S
MOUNT IDA      CLOUDY    71  67  87 VRB5      29.93R
$$

ARZ009-017-025-026-028-250800-
NORTHEAST ARKANSAS

CITY           SKY/WX    TMP DP  RH WIND       PRES   REMARKS
CORNING        CLOUDY    70  70 100 S15G21    29.97S
JONESBORO      LGT RAIN  69  68  96 S14       29.98F
NEWPORT        LGT RAIN  71  70  97 S12       29.97F
WALNUT RIDGE   CLOUDY    70  66  88 S16       29.96F
BLYTHEVILLE    LGT RAIN  70  32  24 S13       30.01R
$$

ARZ022-023-033-042-044-250800-
CENTRAL ARKANSAS

CITY           SKY/WX    TMP DP  RH WIND       PRES   REMARKS
LITTLE ROCK    CLOUDY    70  67  90 S5        29.96F
N LITTLE ROCK    N/A     68  68 100 S6        29.96F
JACKSONVILLE   CLOUDY    68  68  99 SE2       29.95F
SEARCY         CLOUDY    69  68  96 S5        29.98F
HOT SPRINGS    CLOUDY    70  67  90 S6        29.96S
RUSSELLVILLE   CLOUDY    69  68  96 CALM      29.94S
CLINTON        CLOUDY    70  68  94 S5        29.96S
$$

ARZ036-250800-
EAST ARKANSAS

CITY           SKY/WX    TMP DP  RH WIND       PRES   REMARKS
WEST MEMPHIS   LGT RAIN  69  69 100 S12       30.00F
$$

ARZ050-053-066-070-073-250800-
SOUTHWEST ARKANSAS

CITY           SKY/WX    TMP DP  RH WIND       PRES   REMARKS
ARKADELPHIA    FAIR      70  70 100 CALM      29.96S
CAMDEN         MOCLDY    68  66  94 CALM      29.96S
TEXARKANA      MOCLDY    70  68  93 S10       29.94F
EL DORADO      MOCLDY    69  67  93 SE6       29.96F
DE QUEEN       CLOUDY    71  69  93 VRB3      29.92S
$$

ARZ056-057-069-250800-
SOUTHEAST ARKANSAS

CITY           SKY/WX    TMP DP  RH WIND       PRES   REMARKS
PINE BLUFF     CLOUDY    71  69  93 SE8       29.97F
STUTTGART      CLOUDY    72  66  83 MISG      29.98S
MONTICELLO     CLOUDY    71  70  96 S8        29.98S

$$




USA.gov is the U.S. government's official web portal to all federal, state and local government web resources and services.